Regional Weather Roundup
Issued by NWS

Home | Current Version | Previous Version | Graphics & Text | Print | Product List | Glossary On
Versions: 1 2 3 4 5 6 7 8 9 10 11 12 13 14 15 16 17 18 19 20 21 22 23 24 25 26 27 28 29 30 31 32 33 34 35 36 37 38 39 40 41 42 43 44 45 46 47 48 49 50
904
ASUS43 KDMX 241201
RWRIA

WEATHER ROUNDUP FOR IOWA
NATIONAL WEATHER SERVICE DES MOINES IA
700 AM CDT THU MAY 24 2018

NOTE: "FAIR" INDICATES FEW OR NO CLOUDS BELOW 12,000 FEET WITH NO
SIGNIFICANT WEATHER AND/OR OBSTRUCTIONS TO VISIBILITY.

* - THESE STATIONS ARE NOT NWS STATIONS...THUS NOT UNDER NWS
QUALITY CONTROL.  THEY ALSO DO NOT REPORT WEATHER SUCH
AS PRECIPITATION OR FOG.

IAZ001>003-012>014-020>022-031>034-043>046-241300-
   NORTHWEST IOWA

CITY           SKY/WX    TMP DP  RH WIND       PRES   REMARKS
CARROLL *      SUNNY     66  64  94 SE5       30.07R
CHEROKEE *     CLOUDY    68  66  92 S8        30.04S
DENISON *      CLOUDY    70  64  83 S8        30.07R
LE MARS *      CLOUDY    70  64  83 S6        30.03S
ORANGE CITY *  CLOUDY    70  64  83 S7        30.04R
SHELDON *      CLOUDY    70  68  94 S10       30.02R
SIOUX CITY     CLOUDY    69  63  81 SE7       30.03R
6HR MIN TEMP:  65; 6HR MAX TEMP:  73;

SPENCER        MOSUNNY   69  64  84 S10       30.04F
6HR MIN TEMP:  67; 6HR MAX TEMP:  75;

STORM LAKE *   CLOUDY    68  64  88 S10       30.05S
$$

IAZ055>058-069>071-079>083-090>094-241300-
   SOUTHWEST IOWA

CITY           SKY/WX    TMP DP  RH WIND       PRES   REMARKS
ATLANTIC *     SUNNY     70  64  83 S5        30.07R
AUDUBON *      SUNNY     68  64  88 S5        30.08S
CLARINDA *     SUNNY     68  64  88 S7        30.09F
COUNCIL BLFS * CLEAR     68  68 100 S9        30.05R
CRESTON *      MOSUNNY   68  64  88 S9        30.11F
HARLAN  *      MOSUNNY   70  66  88 S7        30.09R
LAMONI         MOSUNNY   68  64  87 S7        30.11S
6HR MIN TEMP:  66; 6HR MAX TEMP:  72;

RED OAK *      SUNNY     68  64  88 S6        30.07R
SHENANDOAH *   SUNNY     68  64  88 SE7       30.07R
$$

IAZ047>049-059>061-072>074-084-241300-
   CENTRAL IOWA

CITY           SKY/WX    TMP DP  RH WIND       PRES   REMARKS
AMES           MOSUNNY   67  63  87 SE8       30.09S
6HR MIN TEMP:  65; 6HR MAX TEMP:  72;

ANKENY *       MOSUNNY   66  64  94 SE5       30.11S
BOONE *        MOSUNNY   68  64  88 SE9       30.08F
CHARITON *     MOSUNNY   68  64  88 S5        30.12R
DES MOINES     PTSUNNY   69  64  84 SE8       30.09R
6HR MIN TEMP:  68; 6HR MAX TEMP:  74;

GRINNELL*      MOSUNNY   67  63  86 SE7       30.14S
KNOXVILLE *      N/A     66  63  88 SE6       30.11R
MARSHALLTOWN   MOSUNNY   67  65  93 SE9       30.11R
6HR MIN TEMP:  64; 6HR MAX TEMP:  70;

NEWTON *       PTSUNNY   68  64  88 SE10      30.12S
PELLA *        CLOUDY    68  63  84 SE7       30.13R
PERRY *        FAIR      70  66  89 SE12      30.07F
$$

IAZ004>006-015-016-023>025-035-036-241300-
   NORTH CENTRAL IOWA

CITY           SKY/WX    TMP DP  RH WIND       PRES   REMARKS
ALGONA *       CLOUDY    70  64  83 S10       30.07S
CLARION *      CLOUDY    68  64  88 S10       30.08S
ESTHERVILLE    MOSUNNY   66  64  93 S13       30.04F
6HR MIN TEMP:  64; 6HR MAX TEMP:  71;

FORT DODGE *   SUNNY     69  65  86 SE6       30.08S
MASON CITY     CLOUDY    66  63  90 S10       30.10F
6HR MIN TEMP:  64; 6HR MAX TEMP:  67;

FOREST CITY *  FAIR      68  64  88 S8        30.09S
WEBSTER CITY * MOSUNNY   68  64  88 SE10      30.06F
IOWA FALLS *   FAIR      67  64  90 SE9       30.11F
$$

IAZ007>011-017>019-026>030-037>042-050>054-066-241300-
   NORTHEAST IOWA

CITY           SKY/WX    TMP DP  RH WIND       PRES   REMARKS
CEDAR RAPIDS   FAIR      65  61  87 SE6       30.14R
6HR MIN TEMP:  61; 6HR MAX TEMP:  66;

CLINTON *        N/A     64  57  78 E7        30.18R
DECORAH *      FAIR      66  59  77 S7        30.13S
DUBUQUE        FAIR      65  55  70 S8        30.17R
6HR MIN TEMP:  62; 6HR MAX TEMP:  67;

MONTICELLO *   FAIR      66  57  72 SE5       30.15S
OELWEIN *      FAIR      66  59  77 SE10      30.14S
WATERLOO       FAIR      67  61  81 SE8       30.12S
6HR MIN TEMP:  65; 6HR MAX TEMP:  68;

$$

IAZ064-065-067-068-078-241300-
   EAST CENTRAL IOWA

CITY           SKY/WX    TMP DP  RH WIND       PRES   REMARKS
DAVENPORT      FAIR      64  56  75 E8        30.18R
6HR MIN TEMP:  60; 6HR MAX TEMP:  67;

IOWA CITY      FAIR      66  60  81 CALM      30.16R
6HR MIN TEMP:  62; 6HR MAX TEMP:  70;

MT. PLEASANT * MOSUNNY   68  59  73 SE3       30.15S
MUSCATINE *    FAIR      64  61  88 CALM      30.15S
QUAD CITIES    FAIR      63  58  83 E5        30.15S
6HR MIN TEMP:  57; 6HR MAX TEMP:  69;

$$

IAZ062-063-075>077-085>089-095>099-241300-
   SOUTHEAST IOWA

CITY           SKY/WX    TMP DP  RH WIND       PRES   REMARKS
BURLINGTON     CLOUDY    68  60  75 VRB3      30.15R
6HR MIN TEMP:  63; 6HR MAX TEMP:  72;

FAIRFIELD *    CLOUDY    68  61  77 SE8       30.13S
FORT MADISON * CLOUDY    68  63  83 SE3       30.16S
KEOKUK *       CLOUDY    66  64  94 E3        30.15R
OSKALOOSA *    FAIR      67  63  86 SE7       30.14R
OTTUMWA        CLOUDY    69  64  84 SE6       30.13R
6HR MIN TEMP:  64; 6HR MAX TEMP:  70;

WASHINGTON *   CLOUDY    68  64  88 SE3       30.16R
$$

ABBREVIATIONS USED IN REMARKS
   TC - TEMPERATURES IN CELSIUS
  WCI - WIND CHILL INDEX
   HX - HEAT INDEX
  VSB - VISIBILITY
$$





USA.gov is the U.S. government's official web portal to all federal, state and local government web resources and services.